Lamoni, IA

6:19 AM CST on December 04, 2016 (GMT -0600)
Lamoni Municipal

Weather History for KLWD - December, 2012

Change the Weather History Date:

Saturday, December 15, 2012

  Actual Average Record
Temperature  
Mean Temperature 45 °F 27 °F  
Max Temperature 51 °F 35 °F 60 °F (2002)
Min Temperature 38 °F 18 °F -15 °F (1989)
Degree Days  
Heating Degree Days 20 38  
Month to date heating degree days 377 542  
Since 1 July heating degree days 1573 1790  
Cooling Degree Days 0 0  
Month to date cooling degree days 0 0  
Year to date cooling degree days 1312 946  
Moisture  
Dew Point 42 °F    
Average Humidity 88    
Maximum Humidity 96    
Minimum Humidity 80    
Precipitation  
Precipitation 0.45 in 0.05 in 0.45 in (2012)
Month to date precipitation 0.51 0.78  
Sea Level Pressure  
Sea Level Pressure 29.58 in    
Wind  
Wind Speed 13 mph (SW)    
Max Wind Speed 22 mph    
Max Gust Speed 31 mph    
Visibility 8 miles    
Events Rain    
T = Trace of Precipitation, MM = Missing Value Source: NWS Daily Summary

Daily Weather History Graph

Daily Weather History Graph

Search for Another Location

Airport or City:

Trip Planner

Search our weather history database for the weather conditions in past years. The results will help you decide how hot, cold, wet, or windy it might be!

Date:

Astronomy

Dec. 15, 2012 Rise Set
Actual Time 7:32 AM CST 4:49 PM CST
Civil Twilight 7:01 AM CST 5:20 PM CST
Nautical Twilight 6:27 AM CST 5:54 PM CST
Astronomical Twilight 5:54 AM CST 6:28 PM CST
Moon 9:25 AM CST (12/15) 7:55 PM CST (12/15)
Length of Visible Light 10h 18m
Length of Day
9h 16m
Waxing Crescent, 8% of the Moon is Illuminated
Dec 15
Waxing Crescent
Dec 19
First Quarter
Dec 28
Full
Jan 4
Last Quarter
Jan 11
New

Hourly Weather History & Observations

Time (CST) Temp. Windchill Dew Point Humidity Pressure Visibility Wind Dir Wind Speed Gust Speed Precip Events Conditions
12:32 AM 42.8 °F 35.4 °F 37.4 °F 81% 29.70 in 3.0 mi SSE 15.0 mph 27.6 mph 0.13 in Rain Heavy Rain
12:53 AM 42.1 °F 33.6 °F 37.9 °F 85% 29.70 in 7.0 mi SSE 18.4 mph 27.6 mph 0.18 in Rain Rain
1:01 AM 42.8 °F 34.8 °F 37.4 °F 81% 29.69 in 5.0 mi SSE 17.3 mph 28.8 mph 0.02 in Rain Rain
1:14 AM 42.8 °F 33.8 °F 39.2 °F 87% 29.68 in 5.0 mi SSE 21.9 mph 29.9 mph 0.07 in Rain Rain
1:23 AM 41.0 °F 31.4 °F 39.2 °F 93% 29.67 in 4.0 mi SSE 21.9 mph 31.1 mph 0.10 in Rain Rain
1:53 AM 41.0 °F 32.8 °F 39.0 °F 93% 29.65 in 8.0 mi SSE 16.1 mph 25.3 mph 0.19 in Rain Light Rain
2:53 AM 42.1 °F 34.5 °F 39.9 °F 92% 29.63 in 10.0 mi SSE 15.0 mph 25.3 mph 0.05 in Rain Light Rain
3:53 AM 43.0 °F 36.4 °F 41.0 °F 93% 29.59 in 10.0 mi SSE 12.7 mph 26.5 mph 0.00 in   Overcast
4:53 AM 43.0 °F 36.0 °F 41.0 °F 93% 29.56 in 5.0 mi SSE 13.8 mph 20.7 mph N/A   Overcast
5:29 AM 42.8 °F 35.4 °F 41.0 °F 93% 29.52 in 4.0 mi SSE 15.0 mph 21.9 mph N/A   Overcast
5:53 AM 43.0 °F 36.0 °F 41.0 °F 93% 29.53 in 5.0 mi SSE 13.8 mph 23.0 mph N/A   Overcast
6:53 AM 44.1 °F 37.7 °F 42.1 °F 93% 29.52 in 7.0 mi SSE 12.7 mph 20.7 mph 0.00 in Rain Light Rain
7:04 AM 44.6 °F 39.7 °F 42.8 °F 93% 29.51 in 6.0 mi SSE 9.2 mph 18.4 mph 0.01 in Rain Light Rain
7:53 AM 44.1 °F 38.1 °F 42.1 °F 93% 29.51 in 8.0 mi SSE 11.5 mph - 0.02 in   Overcast
8:53 AM 45.0 °F 41.2 °F 43.0 °F 93% 29.50 in 4.0 mi SSE 6.9 mph - 0.01 in Rain Light Rain
9:53 AM 46.0 °F 41.4 °F 44.1 °F 93% 29.51 in 8.0 mi SSW 9.2 mph - 0.00 in   Overcast
10:10 AM 46.4 °F 41.9 °F 44.6 °F 93% 29.50 in 7.0 mi SSW 9.2 mph - N/A   Overcast
10:26 AM 46.4 °F 41.9 °F 44.6 °F 93% 29.50 in 8.0 mi SSW 9.2 mph - N/A   Overcast
10:47 AM 48.2 °F - 46.4 °F 93% 29.51 in 10.0 mi SSW 11.5 mph - N/A   Overcast
10:53 AM 48.9 °F - 46.0 °F 90% 29.52 in 10.0 mi SSW 11.5 mph - N/A   Overcast
11:17 AM 48.2 °F - 44.6 °F 87% 29.50 in 10.0 mi SW 11.5 mph - N/A   Overcast
11:53 AM 50.0 °F - 45.0 °F 83% 29.51 in 10.0 mi WSW 11.5 mph - N/A   Mostly Cloudy
12:02 PM 48.2 °F - 44.6 °F 87% 29.49 in 10.0 mi WSW 11.5 mph - N/A   Overcast
12:53 PM 48.9 °F - 44.1 °F 83% 29.50 in 10.0 mi SW 10.4 mph - N/A   Overcast
1:33 PM 48.2 °F - 44.6 °F 87% 29.50 in 10.0 mi WSW 9.2 mph - N/A   Overcast
1:40 PM 48.2 °F - 44.6 °F 87% 29.50 in 10.0 mi WSW 12.7 mph - N/A   Overcast
1:53 PM 48.9 °F - 44.1 °F 83% 29.52 in 10.0 mi WSW 9.2 mph - N/A   Overcast
2:53 PM 48.9 °F - 44.1 °F 83% 29.53 in 10.0 mi WSW 11.5 mph - N/A   Overcast
3:20 PM 48.2 °F - 42.8 °F 82% 29.53 in 10.0 mi WSW 8.1 mph - N/A   Overcast
3:50 PM 48.2 °F - 42.8 °F 82% 29.55 in 10.0 mi WSW 9.2 mph - N/A   Overcast
3:53 PM 48.0 °F - 43.0 °F 83% 29.57 in 10.0 mi WSW 10.4 mph - N/A   Overcast
4:02 PM 48.2 °F - 42.8 °F 82% 29.56 in 10.0 mi WSW 11.5 mph - N/A   Overcast
4:12 PM 48.2 °F - 42.8 °F 82% 29.56 in 10.0 mi WSW 10.4 mph - N/A   Overcast
4:20 PM 48.2 °F - 42.8 °F 82% 29.56 in 10.0 mi WSW 9.2 mph - N/A   Overcast
4:33 PM 48.2 °F - 42.8 °F 82% 29.58 in 10.0 mi SW 9.2 mph - N/A   Overcast
4:51 PM 48.2 °F - 42.8 °F 82% 29.59 in 10.0 mi WSW 13.8 mph - N/A   Overcast
4:53 PM 48.0 °F - 42.1 °F 80% 29.61 in 10.0 mi WSW 15.0 mph - N/A   Overcast
5:53 PM 46.9 °F - 42.1 °F 83% 29.63 in 10.0 mi WSW 11.5 mph - N/A   Overcast
6:48 PM 46.4 °F 39.5 °F 42.8 °F 87% 29.61 in 10.0 mi West 17.3 mph - N/A   Overcast
6:53 PM 46.0 °F 39.6 °F 41.0 °F 83% 29.63 in 10.0 mi West 15.0 mph - N/A   Overcast
7:15 PM 44.6 °F 37.8 °F 41.0 °F 87% 29.62 in 9.0 mi West 15.0 mph - N/A   Overcast
7:53 PM 43.0 °F 35.4 °F 39.9 °F 89% 29.66 in 8.0 mi West 16.1 mph - N/A   Overcast
8:48 PM 41.0 °F 33.9 °F 37.4 °F 87% 29.64 in 7.0 mi West 12.7 mph 21.9 mph N/A   Overcast
8:53 PM 41.0 °F 33.1 °F 37.0 °F 86% 29.66 in 7.0 mi WNW 15.0 mph - N/A   Overcast
9:30 PM 41.0 °F 33.9 °F 37.4 °F 87% 29.65 in 6.0 mi WNW 12.7 mph - N/A   Overcast
9:53 PM 39.9 °F 32.1 °F 36.0 °F 86% 29.67 in 6.0 mi WNW 13.8 mph - N/A   Overcast
10:53 PM 39.0 °F 31.0 °F 36.0 °F 89% 29.69 in 6.0 mi WNW 13.8 mph - N/A   Overcast
11:53 PM 37.9 °F 30.9 °F 35.1 °F 89% 29.70 in 6.0 mi WNW 10.4 mph - N/A   Overcast